Weather History for KBLM - February, 2012

Change the Weather History Date:

Sunday, February 26, 2012

  Actual Average Record
Temperature  
Mean Temperature 37 °F -  
Max Temperature 44 °F 43 °F 59 °F (1997)
Min Temperature 30 °F 29 °F 15 °F (2005)
Degree Days  
Heating Degree Days 28    
Moisture  
Dew Point 14 °F    
Average Humidity 39    
Maximum Humidity 56    
Minimum Humidity 29    
Precipitation  
Precipitation 0.00 in - - ()
Sea Level Pressure  
Sea Level Pressure 30.35 in    
Wind  
Wind Speed 15 mph (West)    
Max Wind Speed 25 mph    
Max Gust Speed 32 mph    
Visibility 10 miles    
Events      
Averages and records for this station are not official NWS values.
T = Trace of Precipitation, MM = Missing Value Source: NWS Daily Summary

Daily Weather History Graph

Daily Weather History Graph

Search for Another Location

Airport or City:

Trip Planner

Search our weather history database for the weather conditions in past years. The results will help you decide how hot, cold, wet, or windy it might be!

Date:

Astronomy

Feb. 26, 2012 Rise Set
Actual Time 6:35 AM EST 5:44 PM EST
Civil Twilight 6:07 AM EST 6:11 PM EST
Nautical Twilight 5:36 AM EST 6:43 PM EST
Astronomical Twilight 5:04 AM EST 7:14 PM EST
Moon 8:28 AM EST (2/26) 10:40 PM EST (2/26)
Length of Visible Light 12h 03m
Length of Day
11h 09m
Waxing Crescent, 20% of the Moon is Illuminated
Feb 26
Waxing Crescent
Feb 29
First Quarter
Mar 8
Full
Mar 14
Last Quarter
Mar 22
New

Hourly Weather History & Observations

Time (EST) Temp. Windchill Dew Point Humidity Pressure Visibility Wind Dir Wind Speed Gust Speed Precip Events Conditions
12:15 AM 35.6 °F 24.0 °F 12.2 °F 38% 30.05 in 10.0 mi WNW 23.0 mph 32.2 mph N/A   Clear
12:35 AM 33.8 °F 21.3 °F 10.4 °F 38% 30.07 in 10.0 mi WNW 24.2 mph 31.1 mph N/A   Clear
12:55 AM 33.8 °F 22.8 °F 10.4 °F 38% 30.08 in 10.0 mi WNW 18.4 mph 27.6 mph N/A   Clear
1:15 AM 33.8 °F 21.0 °F 12.2 °F 41% 30.10 in 10.0 mi WNW 25.3 mph 31.1 mph N/A   Clear
1:35 AM 33.8 °F 22.5 °F 12.2 °F 41% 30.12 in 10.0 mi WNW 19.6 mph 26.5 mph N/A   Clear
2:15 AM 33.8 °F 23.2 °F 10.4 °F 38% 30.14 in 10.0 mi WNW 17.3 mph 20.7 mph N/A   Clear
2:35 AM 33.8 °F 24.8 °F 10.4 °F 38% 30.16 in 10.0 mi WNW 12.7 mph 24.2 mph N/A   Clear
2:55 AM 32.0 °F 22.1 °F 10.4 °F 41% 30.17 in 10.0 mi West 13.8 mph 20.7 mph N/A   Clear
3:55 AM 30.2 °F 19.3 °F 10.4 °F 44% 30.22 in 10.0 mi West 15.0 mph 26.5 mph N/A   Clear
4:35 AM 30.2 °F 21.3 °F 10.4 °F 44% 30.26 in 10.0 mi WNW 10.4 mph 16.1 mph N/A   Clear
4:55 AM 30.2 °F 18.9 °F 10.4 °F 44% 30.27 in 10.0 mi WNW 16.1 mph 20.7 mph N/A   Clear
5:15 AM 30.2 °F 20.8 °F 10.4 °F 44% 30.28 in 10.0 mi WNW 11.5 mph 19.6 mph N/A   Clear
5:35 AM 30.2 °F 19.8 °F 10.4 °F 44% 30.30 in 10.0 mi WNW 13.8 mph 18.4 mph N/A   Clear
5:55 AM 30.2 °F 19.8 °F 10.4 °F 44% 30.30 in 10.0 mi West 13.8 mph - N/A   Clear
6:15 AM 30.2 °F 20.8 °F 10.4 °F 44% 30.32 in 10.0 mi WNW 11.5 mph 20.7 mph N/A   Clear
6:35 AM 30.2 °F 19.8 °F 10.4 °F 44% 30.33 in 10.0 mi WNW 13.8 mph 18.4 mph N/A   Clear
6:55 AM 30.2 °F 19.3 °F 10.4 °F 44% 30.33 in 10.0 mi WNW 15.0 mph 19.6 mph N/A   Clear
7:15 AM 30.2 °F 19.3 °F 10.4 °F 44% 30.36 in 10.0 mi WNW 15.0 mph 23.0 mph N/A   Clear
7:35 AM 30.2 °F 19.8 °F 12.2 °F 47% 30.37 in 10.0 mi WNW 13.8 mph - N/A   Clear
7:55 AM 32.0 °F 20.5 °F 12.2 °F 44% 30.38 in 10.0 mi NW 18.4 mph 24.2 mph N/A   Clear
8:55 AM 33.8 °F 22.5 °F 12.2 °F 41% 30.38 in 10.0 mi NNW 19.6 mph 23.0 mph N/A   Clear
9:15 AM 35.6 °F 26.2 °F 12.2 °F 38% 30.39 in 10.0 mi WNW 15.0 mph 25.3 mph N/A   Clear
9:55 AM 35.6 °F 25.2 °F 12.2 °F 38% 30.38 in 10.0 mi NNW 18.4 mph 26.5 mph N/A   Clear
10:15 AM 37.4 °F 28.2 °F 12.2 °F 36% 30.39 in 10.0 mi NW 16.1 mph 21.9 mph N/A   Clear
10:35 AM 37.4 °F 27.8 °F 12.2 °F 36% 30.40 in 10.0 mi WNW 17.3 mph 21.9 mph N/A   Clear
10:55 AM 39.2 °F 32.0 °F 12.2 °F 33% 30.40 in 10.0 mi WNW 11.5 mph 16.1 mph N/A   Clear
11:15 AM 39.2 °F 32.0 °F 12.2 °F 33% 30.40 in 10.0 mi NW 11.5 mph 20.7 mph N/A   Clear
11:35 AM 39.2 °F 30.8 °F 12.2 °F 33% 30.41 in 10.0 mi West 15.0 mph - N/A   Clear
11:55 AM 41.0 °F 34.3 °F 12.2 °F 31% 30.41 in 10.0 mi WNW 11.5 mph 23.0 mph N/A   Clear
12:15 PM 41.0 °F 33.5 °F 12.2 °F 31% 30.40 in 10.0 mi WNW 13.8 mph 18.4 mph N/A   Clear
12:35 PM 42.8 °F 36.6 °F 14.0 °F 31% 30.40 in 10.0 mi NW 11.5 mph 17.3 mph N/A   Clear
12:55 PM 42.8 °F 36.6 °F 12.2 °F 29% 30.39 in 10.0 mi WNW 11.5 mph 16.1 mph N/A   Clear
1:15 PM 42.8 °F 35.8 °F 14.0 °F 31% 30.39 in 10.0 mi NW 13.8 mph 20.7 mph N/A   Clear
1:35 PM 42.8 °F 38.0 °F 15.8 °F 34% 30.39 in 10.0 mi WNW 8.1 mph 16.1 mph N/A   Clear
1:55 PM 42.8 °F 38.0 °F 14.0 °F 31% 30.39 in 10.0 mi WNW 8.1 mph - N/A   Clear
2:15 PM 42.8 °F 36.2 °F 15.8 °F 34% 30.40 in 10.0 mi WNW 12.7 mph - N/A   Clear
2:35 PM 44.6 °F 39.7 °F 15.8 °F 31% 30.39 in 10.0 mi WNW 9.2 mph - N/A   Clear
2:55 PM 44.6 °F 40.2 °F 17.6 °F 34% 30.39 in 10.0 mi West 8.1 mph - N/A   Clear
3:15 PM 44.6 °F 39.7 °F 15.8 °F 31% 30.39 in 10.0 mi WSW 9.2 mph - N/A   Clear
3:35 PM 44.6 °F 42.2 °F 15.8 °F 31% 30.39 in 10.0 mi West 4.6 mph - N/A   Clear
3:55 PM 44.6 °F 40.2 °F 15.8 °F 31% 30.40 in 10.0 mi WNW 8.1 mph - N/A   Clear
4:15 PM 44.6 °F 38.8 °F 15.8 °F 31% 30.40 in 10.0 mi WNW 11.5 mph - N/A   Clear
4:35 PM 44.6 °F 41.4 °F 15.8 °F 31% 30.40 in 10.0 mi West 5.8 mph - N/A   Clear
4:55 PM 44.6 °F 39.2 °F 15.8 °F 31% 30.40 in 10.0 mi West 10.4 mph - N/A   Clear
5:15 PM 42.8 °F 38.6 °F 15.8 °F 34% 30.40 in 10.0 mi West 6.9 mph - N/A   Clear
5:35 PM 42.8 °F 38.0 °F 15.8 °F 34% 30.41 in 10.0 mi West 8.1 mph - N/A   Clear
5:55 PM 41.0 °F 38.0 °F 15.8 °F 36% 30.42 in 10.0 mi West 4.6 mph - N/A   Clear
6:15 PM 39.2 °F 37.0 °F 15.8 °F 39% 30.43 in 10.0 mi West 3.5 mph - N/A   Clear
6:35 PM 39.2 °F - 15.8 °F 39% 30.43 in 10.0 mi Calm Calm - N/A   Clear
6:55 PM 37.4 °F 34.9 °F 17.6 °F 45% 30.44 in 10.0 mi WSW 3.5 mph - N/A   Clear
7:15 PM 37.4 °F 34.9 °F 17.6 °F 45% 30.44 in 10.0 mi SW 3.5 mph - N/A   Clear
7:35 PM 37.4 °F 34.9 °F 17.6 °F 45% 30.44 in 10.0 mi SW 3.5 mph - N/A   Clear
7:55 PM 35.6 °F 32.8 °F 15.8 °F 44% 30.44 in 10.0 mi SW 3.5 mph - N/A   Clear
8:15 PM 35.6 °F - 17.6 °F 48% 30.44 in 10.0 mi Calm Calm - N/A   Clear
8:35 PM 35.6 °F 30.7 °F 17.6 °F 48% 30.44 in 10.0 mi South 5.8 mph - N/A   Clear
8:55 PM 35.6 °F 30.7 °F 19.4 °F 52% 30.44 in 10.0 mi South 5.8 mph - N/A   Clear
9:15 PM 35.6 °F 29.9 °F 21.2 °F 56% 30.45 in 10.0 mi South 6.9 mph - N/A   Clear
9:35 PM 35.6 °F 30.7 °F 19.4 °F 52% 30.45 in 10.0 mi SSW 5.8 mph - N/A   Clear
9:55 PM 35.6 °F 30.7 °F 19.4 °F 52% 30.45 in 10.0 mi SSW 5.8 mph - N/A   Clear
10:15 PM 33.8 °F 29.6 °F 19.4 °F 56% 30.44 in 10.0 mi SSW 4.6 mph - N/A   Clear
10:35 PM 33.8 °F 27.0 °F 19.4 °F 56% 30.44 in 10.0 mi SSW 8.1 mph - N/A   Clear
10:55 PM 33.8 °F 27.0 °F 21.2 °F 60% 30.44 in 10.0 mi SW 8.1 mph - N/A   Clear
11:15 PM 33.8 °F 30.8 °F 21.2 °F 60% 30.44 in 10.0 mi West 3.5 mph - N/A   Clear
11:35 PM 33.8 °F - 21.2 °F 60% 30.44 in 10.0 mi Calm Calm - N/A   Clear
11:55 PM 33.8 °F - 21.2 °F 60% 30.44 in 10.0 mi Calm Calm - N/A   Clear